Detroit Lakes, MN

3:10 AM CDT on May 26, 2017 (GMT -0500)
Detroit Lakes

Weather History for KDTL - April, 2014

Change the Weather History Date:

Thursday, April 10, 2014

  Actual Average Record
Temperature  
Mean Temperature 45 °F -  
Max Temperature 53 °F 50 °F 87 °F (1977)
Min Temperature 37 °F 26 °F 6 °F (1952)
Degree Days  
Heating Degree Days 20    
Moisture  
Dew Point 28 °F    
Average Humidity 54    
Maximum Humidity 75    
Minimum Humidity 30    
Precipitation  
Precipitation 0.00 in - - ()
Sea Level Pressure  
Sea Level Pressure 29.78 in    
Wind  
Wind Speed 14 mph (WNW)    
Max Wind Speed 25 mph    
Max Gust Speed 33 mph    
Visibility 10 miles    
Events      
Averages and records for this station are not official NWS values.
T = Trace of Precipitation, MM = Missing Value Source: NWS Daily Summary

Daily Weather History Graph

Daily Weather History Graph

Search for Another Location

Airport or City:

Trip Planner

Search our weather history database for the weather conditions in past years. The results will help you decide how hot, cold, wet, or windy it might be!

Date:

Astronomy

Apr. 10, 2014 Rise Set
Actual Time 6:45 AM CDT 8:05 PM CDT
Civil Twilight 6:14 AM CDT 8:36 PM CDT
Nautical Twilight 5:36 AM CDT 9:14 PM CDT
Astronomical Twilight 4:55 AM CDT 9:55 PM CDT
Moon 3:34 PM CDT (4/10) 4:25 AM CDT (4/10)
Length of Visible Light 14h 22m
Length of Day
13h 19m
Waxing Gibbous, 80% of the Moon is Illuminated
Apr 10
Waxing Gibbous
Apr 15
Full
Apr 22
Last Quarter
Apr 29
New
May 6
First Quarter

Hourly Weather History & Observations

Time (CDT) Temp. Windchill Dew Point Humidity Pressure Visibility Wind Dir Wind Speed Gust Speed Precip Events Conditions
12:15 AM 44.6 °F 38.1 °F 33.8 °F 66% 29.66 in 10.0 mi NW 13.8 mph 19.6 mph N/A   Clear
12:34 AM 42.8 °F 35.8 °F 32.0 °F 66% 29.66 in 10.0 mi NW 13.8 mph 18.4 mph N/A   Clear
12:54 AM 42.8 °F 36.6 °F 32.0 °F 66% 29.67 in 10.0 mi NW 11.5 mph - N/A   Clear
1:15 AM 42.8 °F 37.5 °F 32.0 °F 66% 29.68 in 10.0 mi NW 9.2 mph - N/A   Clear
1:35 AM 42.8 °F 36.2 °F 32.0 °F 66% 29.67 in 10.0 mi NW 12.7 mph - N/A   Clear
1:55 AM 42.8 °F 37.0 °F 32.0 °F 66% 29.68 in 10.0 mi WNW 10.4 mph - N/A   Clear
2:15 AM 42.8 °F 36.6 °F 32.0 °F 66% 29.68 in 10.0 mi WNW 11.5 mph - N/A   Clear
2:34 AM 42.8 °F 37.0 °F 32.0 °F 66% 29.67 in 10.0 mi WNW 10.4 mph - N/A   Clear
2:55 AM 41.0 °F 33.9 °F 32.0 °F 70% 29.67 in 10.0 mi WNW 12.7 mph 17.3 mph N/A   Clear
3:15 AM 41.0 °F 33.5 °F 30.2 °F 65% 29.67 in 10.0 mi WNW 13.8 mph - N/A   Clear
3:34 AM 41.0 °F 32.5 °F 30.2 °F 65% 29.67 in 10.0 mi WNW 17.3 mph - N/A   Clear
3:55 AM 41.0 °F 33.1 °F 30.2 °F 65% 29.67 in 10.0 mi WNW 15.0 mph 23.0 mph N/A   Clear
4:14 AM 41.0 °F 33.1 °F 30.2 °F 65% 29.68 in 10.0 mi WNW 15.0 mph - N/A   Clear
4:35 AM 41.0 °F 33.5 °F 28.4 °F 61% 29.68 in 10.0 mi WNW 13.8 mph 19.6 mph N/A   Clear
4:55 AM 41.0 °F 32.8 °F 28.4 °F 61% 29.69 in 10.0 mi West 16.1 mph 20.7 mph N/A   Clear
5:14 AM 39.2 °F 30.8 °F 28.4 °F 65% 29.70 in 10.0 mi West 15.0 mph 20.7 mph N/A   Clear
5:35 AM 39.2 °F 31.6 °F 28.4 °F 65% 29.70 in 10.0 mi West 12.7 mph 20.7 mph N/A   Clear
5:55 AM 37.4 °F 29.3 °F 28.4 °F 70% 29.70 in 10.0 mi WNW 12.7 mph 17.3 mph N/A   Clear
6:14 AM 37.4 °F 28.2 °F 28.4 °F 70% 29.70 in 10.0 mi West 16.1 mph - N/A   Clear
6:35 AM 37.4 °F 28.5 °F 28.4 °F 70% 29.71 in 10.0 mi WNW 15.0 mph 18.4 mph N/A   Clear
6:55 AM 37.4 °F 28.2 °F 28.4 °F 70% 29.73 in 10.0 mi WNW 16.1 mph 24.2 mph N/A   Clear
7:14 AM 37.4 °F 28.5 °F 28.4 °F 70% 29.73 in 10.0 mi WNW 15.0 mph - N/A   Clear
7:35 AM 37.4 °F 29.3 °F 28.4 °F 70% 29.74 in 10.0 mi WNW 12.7 mph - N/A   Clear
7:54 AM 37.4 °F 29.3 °F 28.4 °F 70% 29.74 in 10.0 mi WNW 12.7 mph 17.3 mph N/A   Clear
8:15 AM 39.2 °F 30.8 °F 28.4 °F 65% 29.75 in 10.0 mi NW 15.0 mph - N/A   Clear
8:35 AM 41.0 °F 32.8 °F 30.2 °F 65% 29.76 in 10.0 mi WNW 16.1 mph 23.0 mph N/A   Clear
8:54 AM 41.0 °F 32.5 °F 30.2 °F 65% 29.77 in 10.0 mi NW 17.3 mph - N/A   Clear
9:15 AM 41.0 °F 32.2 °F 30.2 °F 65% 29.77 in 10.0 mi NW 18.4 mph 24.2 mph N/A   Clear
9:35 AM 42.8 °F 34.0 °F 30.2 °F 61% 29.78 in 10.0 mi NW 20.7 mph 28.8 mph N/A   Clear
9:54 AM 42.8 °F 34.8 °F 30.2 °F 61% 29.78 in 10.0 mi NW 17.3 mph 29.9 mph N/A   Clear
10:15 AM 44.6 °F 35.7 °F 28.4 °F 53% 29.79 in 10.0 mi NW 24.2 mph 28.8 mph N/A   Clear
10:35 AM 44.6 °F 36.4 °F 28.4 °F 53% 29.79 in 10.0 mi NW 20.7 mph 26.5 mph N/A   Clear
10:54 AM 44.6 °F 37.2 °F 28.4 °F 53% 29.80 in 10.0 mi NW 17.3 mph 25.3 mph N/A   Clear
11:15 AM 46.4 °F 39.0 °F 28.4 °F 50% 29.81 in 10.0 mi NW 19.6 mph 25.3 mph N/A   Clear
11:35 AM 48.2 °F - 28.4 °F 46% 29.81 in 10.0 mi NW 15.0 mph 21.9 mph N/A   Clear
11:54 AM 50.0 °F - 28.4 °F 43% 29.81 in 10.0 mi NW 18.4 mph 24.2 mph N/A   Clear
12:15 PM 50.0 °F - 28.4 °F 43% 29.81 in 10.0 mi NW 18.4 mph 23.0 mph N/A   Clear
12:35 PM 51.8 °F - 26.6 °F 38% 29.81 in 10.0 mi WNW 23.0 mph 28.8 mph N/A   Clear
12:54 PM 51.8 °F - 26.6 °F 38% 29.81 in 10.0 mi WNW 18.4 mph 29.9 mph N/A   Clear
1:15 PM 53.6 °F - 26.6 °F 35% 29.81 in 10.0 mi NW 20.7 mph 28.8 mph N/A   Clear
1:35 PM 53.6 °F - 26.6 °F 35% 29.81 in 10.0 mi WNW 20.7 mph 33.4 mph N/A   Scattered Clouds
1:55 PM 51.8 °F - 24.8 °F 35% 29.82 in 10.0 mi NW 21.9 mph 29.9 mph N/A   Clear
2:15 PM 51.8 °F - 23.0 °F 33% 29.81 in 10.0 mi NW 23.0 mph 28.8 mph N/A   Scattered Clouds
2:35 PM 51.8 °F - 24.8 °F 35% 29.81 in 10.0 mi WNW 21.9 mph 27.6 mph N/A   Clear
2:55 PM 51.8 °F - 26.6 °F 38% 29.81 in 10.0 mi WNW 17.3 mph 27.6 mph N/A   Clear
3:15 PM 53.6 °F - 23.0 °F 30% 29.81 in 10.0 mi NW 23.0 mph 33.4 mph N/A   Clear
3:35 PM 51.8 °F - 23.0 °F 33% 29.81 in 10.0 mi NW 21.9 mph 31.1 mph N/A   Clear
3:55 PM 53.6 °F - 23.0 °F 30% 29.82 in 10.0 mi WNW 24.2 mph 31.1 mph N/A   Clear
4:15 PM 53.6 °F - 23.0 °F 30% 29.82 in 10.0 mi WNW 24.2 mph 32.2 mph N/A   Clear
4:35 PM 53.6 °F - 24.8 °F 33% 29.82 in 10.0 mi NW 25.3 mph 28.8 mph N/A   Clear
4:54 PM 53.6 °F - 23.0 °F 30% 29.82 in 10.0 mi NNW 23.0 mph 28.8 mph N/A   Clear
5:15 PM 53.6 °F - 23.0 °F 30% 29.83 in 10.0 mi NW 17.3 mph 25.3 mph N/A   Scattered Clouds
5:35 PM 53.6 °F - 23.0 °F 30% 29.83 in 10.0 mi NW 17.3 mph 27.6 mph N/A   Clear
5:54 PM 53.6 °F - 24.8 °F 33% 29.83 in 10.0 mi NW 19.6 mph 25.3 mph N/A   Scattered Clouds
6:15 PM 53.6 °F - 24.8 °F 33% 29.83 in 10.0 mi WNW 12.7 mph - N/A   Scattered Clouds
6:35 PM 51.8 °F - 26.6 °F 38% 29.83 in 10.0 mi NW 11.5 mph - N/A   Clear
6:54 PM 51.8 °F - 28.4 °F 41% 29.84 in 10.0 mi NW 11.5 mph 20.7 mph N/A   Clear
7:15 PM 50.0 °F - 26.6 °F 40% 29.85 in 10.0 mi NW 13.8 mph 24.2 mph N/A   Clear
7:35 PM 50.0 °F - 26.6 °F 40% 29.85 in 10.0 mi NW 13.8 mph - N/A   Clear
7:54 PM 46.4 °F 41.5 °F 30.2 °F 53% 29.86 in 10.0 mi NW 10.4 mph 16.1 mph N/A   Clear
8:15 PM 44.6 °F 40.2 °F 30.2 °F 57% 29.86 in 10.0 mi NW 8.1 mph - N/A   Clear
8:35 PM 44.6 °F 42.2 °F 30.2 °F 57% 29.87 in 10.0 mi NW 4.6 mph - N/A   Clear
8:54 PM 44.6 °F 42.2 °F 30.2 °F 57% 29.88 in 10.0 mi WNW 4.6 mph - N/A   Clear
9:15 PM 44.6 °F 43.1 °F 28.4 °F 53% 29.88 in 10.0 mi WNW 3.5 mph - N/A   Clear
9:35 PM 42.8 °F - 28.4 °F 57% 29.88 in 10.0 mi Calm Calm - N/A   Clear
9:54 PM 42.8 °F - 28.4 °F 57% 29.88 in 10.0 mi Calm Calm - N/A   Clear
10:15 PM 39.2 °F - 30.2 °F 70% 29.89 in 10.0 mi Calm Calm - N/A   Clear
10:35 PM 39.2 °F 37.0 °F 30.2 °F 70% 29.89 in 10.0 mi SSW 3.5 mph - N/A   Clear
10:54 PM 41.0 °F - 28.4 °F 61% 29.89 in 10.0 mi Calm Calm - N/A   Clear
11:15 PM 37.4 °F 33.8 °F 30.2 °F 75% 29.89 in 10.0 mi SSW 4.6 mph - N/A   Clear
11:35 PM 37.4 °F 33.8 °F 30.2 °F 75% 29.89 in 10.0 mi SSW 4.6 mph - N/A   Clear
11:54 PM 41.0 °F 38.0 °F 30.2 °F 65% 29.89 in 10.0 mi SW 4.6 mph - N/A   Clear